Location: Ash Swamp
(41.5170°N, 74.6157°W)
Time: 02:20:51
(UTC+00:00)

Cosmos 1607 - Pass Details

Date: 14 July 2020
Orbit: 912 x 990 km, 65.0° (Epoch: 14 August)

Event Time Altitude Azimuth Distance (km) Brightness Sun altitude
Exits shadow 03:48:13 40° 107° (ESE) 1,365 4.5 -24.4°
Drops below altitude 10° 03:53:43 10° 46° (NE) 2,687 6.6 -24.8°
Sets 03:56:27 0° 39° (NE) 3,650 7.4 -24.9°
